[[{"header":{"parameterUnit":"m.s-1","parameterCategory":1,"la1":30.2991,"la2":30.254,"lo1":-89.0895,"lo2":-89.0444,"dy":0.0017,"dx":0.0017,"nx":28,"ny":28,"refTime":"2023-04-26T21:00:00:Z","depth":0,"parameterNumber":2,"parameterNumberName":"U-component_of_WINDS"},"data":[0,0,0,0,0,0,0,0,0,0,0,0,0,0,0,0,0,0,0,0,0,0,0,0,0,0,0,0,0,0,0,0,0,0,0,0,0,0,0,0,0,0,0,0,0,0,0,0,0,0,0,0,0,0,0,0,0,0,-3.6929,-3.6928,0,-3.685,-3.6849,-3.6849,-3.6768,-3.6767,-3.6766,-3.6765,-3.6681,-3.6679,-3.6678,0,0,0,0,0,0,0,0,0,0,0,0,0,-3.7008,-3.7007,-3.6929,-3.6928,-3.6927,-3.6851,-3.6849,-3.6848,-3.6768,-3.6767,-3.6766,-3.6765,-3.6681,-3.668,-3.6678,0,0,0,0,0,0,0,0,0,0,0,0,0,-3.6956,-3.7007,-3.6929,-3.6878,-3.6873,-3.6851,-3.6849,-3.6848,-3.6769,-3.6767,-3.6765,-3.6764,-3.6681,-3.668,-3.6678,-3.6699,0,0,-3.6672,-3.6671,0,0,0,0,0,0,0,0,-3.6959,-3.6953,-3.6887,-3.6882,-3.6876,-3.6818,-3.6846,-3.6798,-3.6769,-3.6808,-3.6765,-3.6763,-3.6727,-3.6721,-3.671,-3.6695,-3.6691,-3.6672,-3.6671,-3.667,-3.6669,0,0,0,0,0,0,0,-3.6963,-3.6956,-3.6898,-3.6886,-3.6879,-3.6858,-3.6849,-3.6837,-3.6778,-3.6805,-3.6799,-3.6791,-3.6724,-3.6712,-3.6708,-3.669,-3.6672,-3.667,-3.6669,-3.6668,-3.6688,-3.669,0,0,0,0,0,0,-3.6975,-3.696,-3.69,-3.6895,-3.6914,-3.6858,-3.6848,-3.6838,-3.6777,-3.6767,-3.6792,-3.6787,-3.6716,-3.671,-3.6704,-3.6724,-3.667,-3.6668,-3.6667,-3.6687,-3.6689,-3.669,0,0,0,0,0,0,-3.6977,-3.697,-3.6903,-3.6926,-3.6916,-3.6859,-3.6848,-3.6837,-3.6825,-3.6768,-3.6757,-3.6791,-3.6715,-3.6707,-3.6701,-3.672,-3.6667,-3.6666,-3.6685,-3.6687,-3.6689,-3.6765,0,0,0,0,0,0,-3.6979,-3.6971,-3.6979,-3.6927,-3.6915,-3.6902,-3.6849,-3.6837,-3.6823,-3.6815,-3.6764,-3.6754,-3.6713,-3.6704,-3.6699,-3.6717,-3.6664,-3.6683,-3.6686,-3.6689,-3.6761,-3.677,-3.6778,0,0,0,0,0,-3.6982,-3.7002,-3.698,-3.6973,-3.6924,-3.6904,-3.6897,-3.685,-3.6825,-3.6831,-3.6795,-3.6756,-3.672,-3.6704,-3.6698,-3.6715,-3.6681,-3.6685,-3.6688,-3.6757,-3.6768,-3.6778,0,0,0,0,0,0,-3.7056,-3.6994,-3.6969,-3.6973,-3.6944,-3.689,-3.6897,-3.6863,-3.684,-3.6834,-3.6776,-3.6766,-3.6766,-3.674,-3.6724,-3.6733,-3.6695,-3.6698,-3.6749,-3.6759,-3.6768,-3.6773,-3.6663,0,0,0,0,0,-3.7074,-3.7064,-3.701,-3.7019,-3.7006,-3.6955,-3.6944,-3.6911,-3.6878,-3.6865,-3.6828,-3.6798,-3.6779,-3.6768,-3.6748,-3.6758,-3.6745,-3.6767,-3.6775,-3.6783,-3.6785,-3.6788,-3.6797,-3.6703,-3.6702,-3.6702,0,0,-3.7108,-3.7073,-3.707,-3.7033,-3.7007,-3.6997,-3.6945,-3.6936,-3.6928,-3.6864,-3.6856,-3.6828,-3.679,-3.6792,-3.6791,-3.6771,-3.6809,-3.6787,-3.6794,-3.6792,-3.6793,-3.6802,-3.681,-3.6705,-3.6705,-3.6704,0,0,-3.7165,-3.7139,-3.7143,-3.7119,-3.7081,-3.7047,-3.7049,-3.7,-3.698,-3.6972,-3.6924,-3.6913,-3.6883,-3.6858,-3.6841,-3.6893,-3.6855,-3.6888,-3.6932,-3.6936,-3.6943,-3.6949,-3.6967,-3.6974,-3.6891,-3.6891,-3.6891,0,-3.7212,-3.7196,-3.7149,-3.7144,-3.7129,-3.7073,-3.7077,-3.7055,-3.7013,-3.7003,-3.6982,-3.6944,-3.6914,-3.6909,-3.6922,-3.6911,-3.691,-3.6892,-3.6946,-3.6952,-3.6957,-3.6973,-3.698,-3.6895,-3.6895,-3.6894,-3.6894,0,-3.7256,-3.7246,-3.7254,-3.7216,-3.7202,-3.7202,-3.7154,-3.7145,-3.7114,-3.7083,-3.7076,-3.7039,-3.7011,-3.7008,-3.6976,-3.6999,-3.6987,-3.6957,-3.6917,-3.6971,-3.6985,-3.6991,-3.6901,-3.69,-3.6898,-3.6897,0,0,-3.7354,-3.7293,-3.7296,-3.7279,-3.7234,-3.7225,-3.7223,-3.7197,-3.719,-3.7164,-3.7159,-3.7137,-3.7109,-3.709,-3.7056,-3.706,-3.7102,-3.7028,-3.7027,-3.7042,-3.7124,-3.7146,-3.7154,-3.7079,-3.7079,-3.708,-3.7127,0,-3.7403,-3.7395,-3.7354,-3.7358,-3.7348,-3.7296,-3.7294,-3.7266,-3.7238,-3.7224,-3.7192,-3.7177,-3.7142,-3.713,-3.7132,-3.7097,-3.7117,-3.7093,-3.7072,-3.7072,-3.7081,-3.7161,-3.7184,-3.7229,-3.7132,-3.7133,-3.7133,0,-3.7457,-3.7436,-3.744,-3.7397,-3.7391,-3.739,-3.7363,-3.7352,-3.732,-3.7299,-3.728,-3.7243,-3.7236,-3.7202,-3.7192,-3.7176,-3.7166,-3.7148,-3.7149,-3.7143,-3.7104,-3.7156,-3.7242,-3.7249,-3.7142,-3.7141,-3.7141,0,-3.7527,-3.75,-3.7499,-3.7485,-3.7436,-3.7436,-3.7415,-3.7382,-3.7369,-3.7346,-3.7338,-3.7314,-3.7301,-3.7283,-3.724,-3.7219,-3.7235,-3.7197,-3.7216,-3.7218,-3.722,-3.722,-3.7304,-3.7217,-3.7217,-3.7217,-3.7216,0,-3.7584,-3.7588,-3.753,-3.7528,-3.7532,-3.7485,-3.7489,-3.7463,-3.7434,-3.7427,-3.7381,-3.7375,-3.732,-3.7307,-3.7274,-3.7271,-3.7265,-3.7247,-3.7238,-3.725,-3.7253,-3.7241,-3.7236,-3.7218,-3.7218,-3.7218,-3.7217,0,-3.7662,-3.7623,-3.7618,-3.7572,-3.7561,-3.7565,-3.7526,-3.7523,-3.7493,-3.7484,-3.7479,-3.7432,-3.7415,-3.7372,-3.7343,-3.732,-3.7326,-3.731,-3.7337,-3.7331,-3.7352,-3.735,-3.743,-3.7438,-3.7348,-3.7349,-3.735,0,-3.77,-3.7702,-3.7658,-3.765,-3.7632,-3.762,-3.7608,-3.7563,-3.7552,-3.7517,-3.7518,-3.7498,-3.7479,-3.7455,-3.7417,-3.7395,-3.7377,-3.7407,-3.7373,-3.7386,-3.7376,-3.7376,-3.7375,-3.7413,-3.7415,-3.7416,-3.7417,0,-3.7771,-3.7752,-3.7737,-3.7716,-3.7703,-3.7684,-3.7662,-3.7658,-3.7607,-3.7597,-3.758,-3.7566,-3.7539,-3.7519,-3.7492,-3.7469,-3.7434,-3.7428,-3.7431,-3.7442,-3.7458,-3.7449,-3.7355,-3.7426,-3.7425,-3.7424,-3.7424,-3.7423,-3.7828,-3.7828,-3.7798,-3.7782,-3.7762,-3.7743,-3.7738,-3.7709,-3.7694,-3.7669,-3.7643,-3.7629,-3.7598,-3.7558,-3.7539,-3.7527,-3.7508,-3.7513,-3.7514,-3.7515,-3.7521,-3.7462,-3.7522,-3.7521,-3.7521,-3.7521,-3.7521,0,-3.7896,-3.7875,-3.7862,-3.7833,-3.7822,-3.7793,-3.7767,-3.7759,-3.7748,-3.7723,-3.7706,-3.7687,-3.7669,-3.7631,-3.7609,-3.7607,-3.759,-3.7602,-3.7601,-3.7596,-3.7539,-3.7538,-3.7616,-3.7616,-3.7616,-3.7616,-3.7616,-3.7616,-3.793,-3.7928,-3.7906,-3.7894,-3.7872,-3.7859,-3.7847,-3.7829,-3.7809,-3.779,-3.7776,-3.7752,-3.7721,-3.7697,-3.7679,-3.7668,-3.7661,-3.7679,-3.7663,-3.7609,-3.76,-3.7591,-3.759,-3.7678,-3.7678,-3.7721,-3.7721,-3.7721]},{"header":{"parameterUnit":"m.s-1","parameterCategory":1,"la1":30.2991,"la2":30.254,"lo1":-89.0895,"lo2":-89.0444,"dy":0.0017,"dx":0.0017,"nx":28,"ny":28,"refTime":"2023-04-26T21:00:00:Z","depth":0,"parameterNumber":3,"parameterNumberName":"V-component_of_WINDS"},"data":[0,0,0,0,0,0,0,0,0,0,0,0,0,0,0,0,0,0,0,0,0,0,0,0,0,0,0,0,0,0,0,0,0,0,0,0,0,0,0,0,0,0,0,0,0,0,0,0,0,0,0,0,0,0,0,0,0,0,2.094,2.094,0,2.0951,2.0951,2.0951,2.1035,2.1037,2.1039,2.1041,2.1046,2.1044,2.1042,0,0,0,0,0,0,0,0,0,0,0,0,0,2.0989,2.0988,2.094,2.094,2.094,2.0951,2.0951,2.0951,2.1034,2.1037,2.1039,2.1042,2.1046,2.1044,2.1042,0,0,0,0,0,0,0,0,0,0,0,0,0,2.098,2.0987,2.094,2.0983,2.0987,2.0951,2.0951,2.0951,2.1034,2.1037,2.104,2.1043,2.1047,2.1045,2.1042,2.0963,0,0,2.1034,2.1032,0,0,0,0,0,0,0,0,2.098,2.0978,2.0977,2.098,2.0985,2.0995,2.097,2.0955,2.1033,2.1016,2.1041,2.1044,2.1026,2.1025,2.102,2.0963,2.0963,2.1033,2.1032,2.1031,2.103,0,0,0,0,0,0,0,2.0981,2.0978,2.0944,2.0977,2.0982,2.1001,2.1003,2.0967,2.1003,2.1018,2.1024,2.1024,2.1029,2.1022,2.1021,2.0963,2.1033,2.1031,2.1029,2.1028,2.0844,2.0841,0,0,0,0,0,0,2.0976,2.0978,2.0944,2.0945,2.0991,2.0998,2.1,2.0988,2.1004,2.1009,2.1022,2.1028,2.1026,2.1024,2.1021,2.0931,2.1031,2.1028,2.1026,2.0847,2.0843,2.0839,0,0,0,0,0,0,2.0977,2.0972,2.0943,2.0963,2.0961,2.0994,2.0979,2.0987,2.0981,2.1007,2.1013,2.1009,2.1028,2.1025,2.0978,2.0932,2.1027,2.1024,2.0851,2.0846,2.0841,2.0749,0,0,0,0,0,0,2.0978,2.0972,2.0943,2.0962,2.096,2.09,2.0977,2.0985,2.0977,2.0985,2.0997,2.1001,2.103,2.0981,2.0975,2.093,2.1022,2.0855,2.0849,2.0843,2.0756,2.0741,2.0729,0,0,0,0,0,2.0979,2.0915,2.0941,2.0936,2.0924,2.0897,2.0896,2.0932,2.0973,2.0943,2.096,2.1001,2.0938,2.0976,2.0969,2.0923,2.0858,2.085,2.0843,2.0762,2.0744,2.0729,0,0,0,0,0,0,2.0887,2.0918,2.0947,2.0887,2.089,2.0912,2.0876,2.0912,2.0901,2.0909,2.0952,2.0954,2.09,2.0907,2.0948,2.0848,2.0905,2.0896,2.0846,2.0829,2.0816,2.0815,2.102,0,0,0,0,0,2.086,2.0838,2.0865,2.0809,2.0809,2.0842,2.0832,2.086,2.0863,2.0863,2.0877,2.0877,2.0858,2.0844,2.0827,2.0758,2.0762,2.0723,2.0709,2.0698,2.069,2.0655,2.0638,2.0815,2.0815,2.0815,0,0,2.0803,2.0818,2.08,2.0791,2.0796,2.0771,2.0842,2.0812,2.0793,2.0858,2.0815,2.0825,2.0828,2.077,2.0744,2.0773,2.0642,2.0689,2.068,2.0677,2.0646,2.0629,2.0614,2.081,2.0811,2.0812,0,0,2.0688,2.0696,2.0652,2.0656,2.0663,2.0686,2.0675,2.0693,2.0703,2.066,2.071,2.0687,2.0653,2.0654,2.0649,2.0536,2.0574,2.053,2.0458,2.0424,2.041,2.0398,2.0358,2.0344,2.0521,2.0521,2.0521,0,2.0616,2.0581,2.0623,2.0591,2.0586,2.0646,2.0602,2.0603,2.0603,2.0598,2.0631,2.0591,2.0597,2.0541,2.0513,2.0508,2.0497,2.0528,2.0409,2.0397,2.0386,2.0349,2.0334,2.0516,2.0516,2.0517,2.0517,0,2.0493,2.0468,2.0431,2.0433,2.0424,2.0385,2.0421,2.0406,2.0435,2.0454,2.0411,2.0421,2.0409,2.0397,2.0424,2.0345,2.0363,2.0401,2.046,2.0364,2.033,2.0316,2.0508,2.051,2.0511,2.0513,0,0,2.0317,2.0346,2.0332,2.0335,2.0348,2.0329,2.0293,2.0284,2.0271,2.0269,2.024,2.0211,2.0248,2.0243,2.0271,2.024,2.0152,2.0283,2.0284,2.0259,2.0066,2.0037,2.002,2.0177,2.0175,2.0173,2.0066,0,2.0207,2.015,2.0188,2.0123,2.0101,2.016,2.0129,2.0133,2.015,2.0133,2.0152,2.0131,2.018,2.0178,2.0151,2.0168,2.0114,2.0177,2.015,2.0149,2.0148,2.0002,1.9971,1.9871,2.0053,2.0051,2.0049,0,2.007,2.0066,2.0,2.0021,2.0013,1.9985,1.998,1.9963,1.997,1.9984,1.998,2.0016,1.9982,2.004,1.9993,2.0035,2.0027,2.0034,2.0031,2.0029,2.0093,1.9998,1.9839,1.9824,2.0029,2.003,2.0032,0,1.995,1.9928,1.9887,1.9887,1.9909,1.9888,1.9896,1.9907,1.9899,1.9894,1.9889,1.9879,1.9874,1.9865,1.9898,1.9936,1.9847,1.9907,1.9858,1.9857,1.9836,1.9837,1.9674,1.9829,1.983,1.983,1.983,0,1.9823,1.9781,1.9834,1.9808,1.9762,1.9806,1.976,1.9774,1.9782,1.976,1.9809,1.9786,1.9831,1.9812,1.9837,1.9795,1.9792,1.9803,1.981,1.9799,1.9797,1.9793,1.9801,1.9826,1.9827,1.9828,1.9828,0,1.9681,1.9715,1.9674,1.97,1.9705,1.9671,1.9692,1.9669,1.9691,1.9662,1.9657,1.969,1.9672,1.9703,1.9688,1.9705,1.9647,1.9664,1.9645,1.965,1.96,1.9604,1.9429,1.9409,1.9577,1.9575,1.9574,0,1.9598,1.9568,1.9591,1.9581,1.9587,1.9569,1.9563,1.9605,1.9596,1.9603,1.9578,1.9565,1.9556,1.9523,1.9545,1.9534,1.9552,1.9491,1.955,1.954,1.9552,1.9553,1.9551,1.9479,1.9477,1.9475,1.9474,0,1.9448,1.9467,1.9456,1.9452,1.9443,1.9441,1.9443,1.9431,1.9476,1.9463,1.9446,1.9439,1.9425,1.9411,1.9405,1.9412,1.945,1.9455,1.9444,1.9432,1.9422,1.9428,1.9613,1.9459,1.946,1.9461,1.9462,1.9463,1.9333,1.931,1.9323,1.9311,1.9317,1.9317,1.9298,1.9318,1.9305,1.9299,1.9324,1.9301,1.931,1.9307,1.9311,1.9293,1.932,1.9302,1.9298,1.9293,1.9285,1.9425,1.9292,1.9292,1.9293,1.9293,1.9293,0,1.9186,1.9199,1.9187,1.9189,1.9178,1.9218,1.9222,1.921,1.919,1.9196,1.9188,1.9169,1.9155,1.9177,1.9167,1.9149,1.9166,1.9145,1.9147,1.9148,1.9262,1.9273,1.9131,1.9131,1.9132,1.9132,1.9132,1.9132,1.9108,1.9071,1.9092,1.9058,1.907,1.905,1.905,1.905,1.9056,1.9033,1.9023,1.9039,1.9051,1.9043,1.9032,1.9039,1.9033,1.9006,1.9018,1.9124,1.914,1.9155,1.9166,1.9004,1.9004,1.8907,1.8906,1.8905]}]]